Stations météo

réclame
Mon MeteoGroup
Walney Island, Grande-Bretagne (3214): Température de l'air & dewpoint: 14.09.2018 17:00:00 - 20.09.2018 17:00:00 (BST)Walney Island, Grande-Bretagne (3214): Température de l'air -20cm & Température de l'air -100cm: 14.09.2018 17:00:00 - 20.09.2018 17:00:00 (BST)Walney Island, Grande-Bretagne (3214): Vitesse du vent & gusts: 14.09.2018 17:00:00 - 20.09.2018 17:00:00 (BST)Walney Island, Grande-Bretagne (3214): Direction du vent: 14.09.2018 17:00:00 - 20.09.2018 17:00:00 (BST)Walney Island, Grande-Bretagne (3214): reduced air pressure: 14.09.2018 17:00:00 - 20.09.2018 17:00:00 (BST)Walney Island, Grande-Bretagne (3214): visibility: 14.09.2018 17:00:00 - 20.09.2018 17:00:00 (BST)Walney Island, Grande-Bretagne (3214): Quantités de précipitations: 14.09.2018 17:00:00 - 20.09.2018 17:00:00 (BST)
Date & Time tt [°C] td [°C] tt -20cm [°C] tt -100cm [°C] ff [km/h] ff [knt] fx [km/h] fx [knt] dd ppp [hPa] vv [km] rr [mm]
20.09.2018 17:00:00 8,7 7,7 - - 16 9 - - ENE 1000,0 15 2,6
20.09.2018 16:00:00 9,2 7,8 - - 8 4 - - ENE 1002,8 7 3,8
20.09.2018 15:00:00 9,9 7,7 - - 11 6 - - SSE 1004,6 5 2,6
20.09.2018 14:00:00 11,8 9,2 - - 11 6 - - SSE 1005,4 14 0,4
20.09.2018 13:00:00 13,5 7,3 - - 9 5 - - SSW 1006,5 35 0,0
20.09.2018 12:00:00 14,1 7,4 - - 13 7 - - SW 1007,3 29 0,0
20.09.2018 11:00:00 15,1 8,1 - - 18 10 - - SW 1008,2 25 0,0
20.09.2018 10:00:00 14,5 7,4 15,7 15,7 21 11 - - WSW 1008,4 23 0,0
20.09.2018 09:00:00 13,2 7,2 - - 22 12 - - WSW 1008,6 19 0,0
20.09.2018 08:00:00 12,7 7,4 - - 24 13 - - WSW 1008,4 19 0,0
20.09.2018 07:00:00 12,4 6,6 - - 26 14 - - WSW 1008,1 20 0,0
20.09.2018 06:00:00 12,7 6,9 - - 28 15 - - WSW 1008,4 19 0,0
20.09.2018 05:00:00 12,5 6,8 - - 28 15 - - WSW 1008,1 20 0,0
20.09.2018 04:00:00 12,9 6,7 - - 34 18 48 26 WSW 1008,2 26 0,0
20.09.2018 03:00:00 13,1 6,5 - - 37 20 52 28 WSW 1008,3 21 0,0
20.09.2018 02:00:00 13,1 6,5 - - 37 20 54 29 WSW 1008,5 23 0,0
20.09.2018 01:00:00 13,0 6,9 - - 35 19 65 35 WSW 1008,2 14 0,0
20.09.2018 00:00:00 13,3 6,8 - - 39 21 57 31 WSW 1008,3 17 0,0
19.09.2018 23:00:00 13,0 6,9 - - 37 20 61 33 SW 1008,0 22 0,0
19.09.2018 22:00:00 13,9 6,6 - - 42 23 63 34 WSW 1007,6 18 0,0
19.09.2018 21:00:00 14,2 5,6 - - 42 23 61 33 WSW 1007,6 23 0,0
19.09.2018 20:00:00 14,1 7,1 - - 34 18 57 31 WSW 1007,0 16 0,0
19.09.2018 19:00:00 13,7 7,4 - - 39 21 63 34 WSW 1006,6 16 0,0
19.09.2018 18:00:00 14,2 7,4 - - 31 17 74 40 WSW 1005,7 14 0,0
19.09.2018 17:00:00 14,8 7,3 - - 52 28 80 43 WSW 1004,6 18 0,0
19.09.2018 16:00:00 15,0 7,1 - - 59 32 81 44 WSW 1003,9 14 0,0
19.09.2018 15:00:00 15,6 8,3 - - 52 28 85 46 WSW 1002,8 11 0,0
19.09.2018 14:00:00 16,4 7,6 - - 55 30 94 51 SW 1001,1 12 0,0
19.09.2018 13:00:00 16,8 10,7 - - 57 31 91 49 SW 998,2 8 0,0
19.09.2018 12:00:00 17,0 13,9 - - 52 28 85 46 SSW 997,2 9 0,0
19.09.2018 11:00:00 17,3 12,2 - - 44 24 68 37 S 997,3 14 0,0
19.09.2018 10:00:00 16,9 12,7 16,0 15,7 41 22 61 33 S 997,9 17 0,0
19.09.2018 09:00:00 15,6 12,7 - - 39 21 55 30 SSE 999,5 16 0,0
19.09.2018 08:00:00 15,2 11,9 - - 35 19 54 29 SSE 1000,6 23 0,0
19.09.2018 07:00:00 14,7 11,7 - - 29 16 - - SE 1001,8 28 0,0
19.09.2018 06:00:00 15,2 11,9 - - 21 11 - - S 1003,2 16 0,0
19.09.2018 05:00:00 15,2 12,6 - - 26 14 - - S 1004,6 14 0,0
19.09.2018 04:00:00 15,3 12,4 - - 29 16 46 25 SSW 1004,7 13 0,0
19.09.2018 03:00:00 15,3 12,7 - - 31 17 52 28 SSW 1004,4 13 0,0
19.09.2018 02:00:00 15,4 13,0 - - 34 18 54 29 SSW 1004,4 13 0,0
19.09.2018 01:00:00 15,9 13,2 - - 35 19 54 29 SSW 1004,4 13 0,0
19.09.2018 00:00:00 15,9 13,2 - - 34 18 55 30 SSW 1003,9 12 0,0
18.09.2018 23:00:00 16,2 12,9 - - 35 19 55 30 SSW 1003,4 13 0,0
18.09.2018 22:00:00 16,4 13,9 - - 34 18 50 27 SSW 1003,3 12 0,0
18.09.2018 21:00:00 16,6 14,3 - - 31 17 65 35 S 1003,1 11 0,0
18.09.2018 20:00:00 16,9 14,7 - - 31 17 61 33 SSW 1002,9 10 0,0
18.09.2018 19:00:00 17,1 14,5 - - 29 16 50 27 S 1002,7 11 0,0
18.09.2018 18:00:00 17,3 14,3 - - 29 16 55 30 SSW 1002,6 13 0,0
18.09.2018 17:00:00 17,5 14,1 - - 35 19 55 30 SSW 1002,4 10 0,0
18.09.2018 16:00:00 18,2 15,1 - - 29 16 46 25 SSW 1002,4 10 0,0
18.09.2018 15:00:00 16,4 14,7 - - 26 14 61 33 SSW 1002,3 13 0,0
18.09.2018 14:00:00 17,4 13,9 - - 41 22 67 36 SW 1001,7 17 0,0
18.09.2018 13:00:00 17,1 13,3 - - 37 20 57 31 SW 1000,8 14 0,0
18.09.2018 12:00:00 16,8 14,9 - - 35 19 57 31 SW 999,5 16 0,0
18.09.2018 11:00:00 16,4 15,9 - - 31 17 52 28 SW 998,6 10 0,2
18.09.2018 10:00:00 16,3 16,0 16,0 15,7 35 19 54 29 SW 996,9 4,0 0,2
18.09.2018 09:00:00 16,1 15,9 - - 29 16 - - SW 995,1 9 0,0
18.09.2018 08:00:00 16,4 16,0 - - 29 16 46 25 S 993,5 6 0,2
18.09.2018 07:00:00 16,4 15,6 - - 26 14 - - SSE 993,0 10 0,0
18.09.2018 06:00:00 16,6 14,3 - - 29 16 46 25 SE 993,7 25 0,0
18.09.2018 05:00:00 16,1 13,1 - - 34 18 - - SE 995,0 35 0,0
18.09.2018 04:00:00 15,9 12,3 - - 31 17 - - SE 996,6 40 0,0
18.09.2018 03:00:00 15,7 11,9 - - 29 16 - - SE 998,3 45 0,0
18.09.2018 02:00:00 15,5 12,9 - - 15 8 - - ESE 999,8 45 0,0
18.09.2018 01:00:00 16,0 13,2 - - 26 14 - - SE 1000,8 35 0,0
18.09.2018 00:00:00 16,6 13,6 - - 24 13 - - SE 1002,0 50 0,0
17.09.2018 23:00:00 16,7 14,2 - - 18 10 - - SSE 1002,8 40 0,0
17.09.2018 22:00:00 17,3 15,1 - - 16 9 - - SSE 1003,6 28 0,0
17.09.2018 21:00:00 16,8 14,8 - - 13 7 - - SSE 1004,3 30 0,0
17.09.2018 20:00:00 17,5 14,9 - - 15 8 - - S 1004,4 28 0,0
17.09.2018 19:00:00 17,5 14,8 - - 16 9 - - S 1004,6 30 0,0
17.09.2018 18:00:00 18,0 15,4 - - 13 7 - - S 1005,2 40 0,0
17.09.2018 17:00:00 18,4 16,2 - - 15 8 - - S 1005,8 11 0,0
17.09.2018 16:00:00 17,5 16,1 - - 13 7 - - SSW 1006,6 35 0,0
17.09.2018 15:00:00 17,5 16,2 - - 18 10 - - S 1007,4 18 0,0
17.09.2018 14:00:00 18,2 15,2 - - 21 11 - - S 1007,9 50 0,0
17.09.2018 13:00:00 17,0 15,0 - - 18 10 - - SE 1008,8 35 0,0
17.09.2018 12:00:00 16,3 14,0 - - 18 10 - - SE 1009,7 29 0,0
17.09.2018 11:00:00 14,2 11,9 - - 18 10 - - SE 1010,7 30 0,0
17.09.2018 10:00:00 13,1 11,7 15,9 15,7 21 11 - - SE 1011,2 25 0,0
17.09.2018 09:00:00 13,3 11,6 - - 13 7 - - SE 1011,6 30 0,0
17.09.2018 08:00:00 12,9 11,6 - - 18 10 - - SE 1011,8 40 0,0
17.09.2018 07:00:00 14,0 12,1 - - 13 7 - - S 1012,2 35 0,0
17.09.2018 06:00:00 14,0 12,8 - - 9 5 - - SSW 1012,6 19 0,0
17.09.2018 05:00:00 13,8 12,8 - - 11 6 - - SSW 1012,7 17 0,0
17.09.2018 04:00:00 13,9 13,0 - - 11 6 - - SSW 1013,2 21 0,0
17.09.2018 03:00:00 14,2 13,0 - - 13 7 - - SSW 1013,6 19 0,0
17.09.2018 02:00:00 14,6 12,9 - - 13 7 - - SSW 1013,9 30 0,0
17.09.2018 01:00:00 14,7 13,0 - - 15 8 - - SSW 1014,3 35 0,0
17.09.2018 00:00:00 14,4 12,8 - - 15 8 - - SSW 1014,5 45 0,0
16.09.2018 23:00:00 14,2 12,6 - - 16 9 - - SSW 1014,2 45 0,0
16.09.2018 22:00:00 12,0 10,7 - - 9 5 - - S 1014,6 28 0,0
16.09.2018 21:00:00 13,3 11,3 - - 9 5 - - S 1014,5 35 0,0
16.09.2018 20:00:00 13,7 11,4 - - 9 5 - - SSW 1014,2 40 0,0
16.09.2018 19:00:00 14,7 11,1 - - 9 5 - - SW 1013,8 35 0,0
16.09.2018 18:00:00 15,9 11,6 - - 15 8 - - WSW 1013,6 30 0,0
16.09.2018 17:00:00 16,5 12,1 - - 18 10 - - WSW 1013,5 29 0,0
16.09.2018 16:00:00 16,0 11,8 - - 22 12 - - W 1013,4 30 0,0
16.09.2018 15:00:00 16,2 12,1 - - 28 15 - - W 1013,4 35 0,0
16.09.2018 14:00:00 16,5 12,3 - - 22 12 - - WSW 1012,8 26 0,0
16.09.2018 13:00:00 16,6 13,1 - - 22 12 - - WSW 1012,3 30 0,0
16.09.2018 12:00:00 16,0 12,5 - - 28 15 - - W 1012,2 28 0,0
16.09.2018 11:00:00 15,2 12,1 - - 24 13 - - W 1011,7 26 0,0
16.09.2018 10:00:00 14,6 12,9 15,7 15,7 28 15 55 30 W 1010,9 20 0,2
16.09.2018 09:00:00 15,8 15,6 - - 35 19 52 28 SW 1010,3 3,7 1,0
16.09.2018 08:00:00 15,6 15,2 - - 29 16 61 33 SSW 1010,2 3,5 2,2
16.09.2018 07:00:00 15,5 14,8 - - 39 21 59 32 SSW 1010,0 4,4 1,0
16.09.2018 06:00:00 15,3 13,8 - - 28 15 48 26 S 1010,5 14 0,6
16.09.2018 05:00:00 15,3 13,0 - - 28 15 46 25 S 1011,0 21 0,0
16.09.2018 04:00:00 15,0 12,6 - - 29 16 48 26 S 1012,0 30 0,2
16.09.2018 03:00:00 14,7 12,7 - - 29 16 48 26 S 1013,3 14 0,2
16.09.2018 02:00:00 14,3 12,5 - - 24 13 - - S 1014,1 6 0,2
16.09.2018 01:00:00 14,4 11,7 - - 24 13 - - S 1015,5 7 0,0
16.09.2018 00:00:00 14,7 11,6 - - 22 12 - - SSE 1016,1 35 0,0
15.09.2018 23:00:00 14,7 11,9 - - 18 10 - - SSE 1017,0 30 0,0
15.09.2018 22:00:00 15,0 11,3 - - 16 9 - - S 1017,9 40 0,0
15.09.2018 21:00:00 15,0 11,3 - - 16 9 - - S 1018,5 28 0,0
15.09.2018 20:00:00 14,9 11,9 - - 18 10 - - SSW 1019,1 26 0,0
15.09.2018 19:00:00 14,8 12,3 - - 8 4 - - S 1019,4 30 0,0
15.09.2018 18:00:00 14,8 11,0 - - 11 6 - - SW 1019,5 45 -
15.09.2018 17:00:00 15,1 11,6 - - 13 7 - - SW 1019,8 30 0,0
15.09.2018 16:00:00 15,0 11,6 - - 16 9 - - SW 1020,2 40 0,0
15.09.2018 15:00:00 15,7 12,2 - - 15 8 - - SW 1020,3 40 0,0
15.09.2018 14:00:00 15,1 12,4 - - 15 8 - - W 1020,7 27 0,0
15.09.2018 13:00:00 13,4 12,8 - - 11 6 - - SSE 1020,9 30 0,2
15.09.2018 12:00:00 13,2 10,9 - - 13 7 - - SSE 1020,9 50 0,0
15.09.2018 11:00:00 13,3 10,9 - - 13 7 - - S 1021,0 9 0,0
15.09.2018 10:00:00 13,3 10,1 15,7 15,7 15 8 - - S 1020,8 45 0,0
15.09.2018 09:00:00 13,3 8,6 - - 5 3 - - SW 1020,4 50 0,0
15.09.2018 08:00:00 12,3 7,4 - - 5 3 - - W 1020,0 28 0,0
15.09.2018 07:00:00 12,2 7,6 - - 8 4 - - W 1019,6 45 0,0
15.09.2018 06:00:00 12,1 7,8 - - 8 4 - - W 1019,5 40 0,0
15.09.2018 05:00:00 12,4 7,3 - - 15 8 - - W 1019,4 45 0,0
15.09.2018 04:00:00 12,6 8,5 - - 18 10 - - W 1019,0 50 0,0
15.09.2018 03:00:00 12,9 10,1 - - 16 9 - - W 1019,1 25 0,0
15.09.2018 02:00:00 12,6 10,4 - - 21 11 - - WNW 1018,7 11 0,0
15.09.2018 01:00:00 13,3 10,6 - - 21 11 - - WNW 1018,4 10 0,0
15.09.2018 00:00:00 13,6 10,2 - - 22 12 46 25 W 1017,9 30 0,0
14.09.2018 23:00:00 14,1 10,3 - - 39 21 48 26 W 1017,8 50 0,0
14.09.2018 22:00:00 13,9 10,4 - - 29 16 - - W 1017,5 40 0,0
14.09.2018 21:00:00 13,2 10,1 - - 24 13 - - W 1017,0 50 0,2
14.09.2018 20:00:00 12,0 10,3 - - 35 19 59 32 W 1016,7 11 1,0
14.09.2018 19:00:00 14,7 11,3 - - 28 15 - - WSW 1016,1 30 0,0
14.09.2018 18:00:00 14,4 10,6 - - 22 12 - - WSW 1015,9 20 0,0
14.09.2018 17:00:00 14,9 11,3 - - 24 13 - - WSW 1015,8 30 0,0

tt = Température de l'air
td = dewpoint
tt -20cm = Température de l'air -20cm
tt -100cm = Température de l'air -100cm
ff = Vitesse du vent
fx = gusts
dd = Direction du vent
ppp = reduced air pressure
vv = visibility
rr = Quantités de précipitations

stations d'obs. à proximité